OPS 4682 DEB, 18271

Orbit data source: Space-Track

OPS 4682 DEB, 18271 is space debris in LEO originally from a launch on Sat, 03 Apr 1965 UTC launched from the Air Force Western Test Range (AFWTR). Debris objects in space refer to the collection of defunct objects orbiting the Earth. Examples of debris include non-operational satellites, rocket bodies, and fragments generated from explosions, collisions, or faulty payload assembly.

Loading next visibility...
Identifier
18271, 1965-027AA
Orbit
LEO
Country
Flag of USUS
Related business
Manufacturer
Unknown
Mission
Spacecraft
Bus & Motor
Unknown
Mass
Unknown
Launch date (UTC)
1965-04-03 (61 years ago)
Launch vehicle
Unknown
Launch site
Air Force Western Test Range (AFWTR)
Object type
Payload
Rocket body
Debris
Shape & HBR
Unknown shape, 0.1 m
Radar Cross Section
Small (<0.1 m²)

Expand to show TLE details & history
Last TLE update: 13 hours ago

TLE from 13 hours ago
0 OPS 4682 DEB
1 18271U 65027AA  25307.90732742  .00000012  00000-0  16003-4 0  9997
2 18271  90.2435   2.4942 0030614 354.6703 183.7340 12.97529170860178
Epoch: 2025-11-03T21:46Z
TLE epoch observation values (Epoch: 2025-11-03T21:46:33.089Z)
Latitude
1.5153°
Longitude
172.46077°
Altitude
1,297.853 km
Speed
7.197 km/s
True Right ascension
12h 10m 00s
True Declination
1° 30' 25"
Sunlit
Object was in daylight at epoch
Visualization orbit readout
Latitude
Unknown
Longitude
Unknown
Altitude
Unknown
Speed
Unknown
Apparent Right ascension
Unknown
Apparent Declination
Unknown
Sunlit
N/A
Visualization observer readout
Local Sidereal Time
06:41:45
Azimuth
Unknown
Elevation
Unknown
Doppler factor
Unknown
Orbital elements
Apogee altitude
1,292.324 km
Perigee altitude
1,245.503 km
Semi-major axis
7,647.05 km
Eccentricity
0.00306
Inclination
90.2435°
RAAN
2.4942°
Arg. of periapsis
354.6703°
True anomaly
183.71124°
Mean anomaly
183.734°
Eccentric anomaly
183.72261°
Mean motion
3.24565 °/min
Orbital period
110.92 mins
BSTAR
0.000016003
Loading maneuver chart data...
Computing Atmospheric mass density...
Loading historical data...
Loading historical data...
Loading historical data...
Loading historical data...
Loading historical data...
Loading historical data...
Loading historical data...

Documentation

Showing up to 5 results
|